Location: De Har
(53.3413°N, 6.6858°E)
Time: 16:32:52
(UTC+00:00)

Aureole 1 Rocket - Pass Details

Date: 22 April 2026
Orbit: 373 x 1151 km, 73.9° (Epoch: 9 May)

Event Time Altitude Azimuth Distance (km) Brightness Sun altitude
Rises 01:52:59 0° 336° (NNW) 2,580 6.7 -17.9°
Reaches altitude 10° 01:54:57 10° 340° (NNW) 1,784 5.8 -17.7°
Maximum altitude 01:58:52 61° 62° (ENE) 699 3.5 -17.4°
Drops below altitude 10° 02:03:45 10° 143° (SE) 2,225 5.8 -16.9°
Sets 02:06:26 0° 146° (SE) 3,288 6.6 -16.7°
